Weather History for Troy, MI

Change the Weather History Date:

Wednesday, September 18, 2013

  Actual Average (KDET) Record (KDET)
Temperature  
Mean Temperature 63 °F -  
Max Temperature 76 °F 73 °F 92 °F (1955)
Min Temperature 50 °F 56 °F 41 °F (1959)
Degree Days  
Heating Degree Days 2    
Growing Degree Days 13 (Base 50)    
Moisture  
Dew Point 50 °F    
Average Humidity 66    
Maximum Humidity 91    
Minimum Humidity 34    
Precipitation  
Precipitation 0.00 in - - ()
Sea Level Pressure  
Sea Level Pressure 30.16 in    
Wind  
Wind Speed 1 mph (South)    
Max Wind Speed 10 mph    
Max Gust Speed -    
Visibility 10 miles    
Events      
Averages and records for this station are not official NWS values.
T = Trace of Precipitation, MM = Missing Value Source: NWS Daily Summary

Daily Weather History Graph

Daily Weather History Graph

Search for Another Location

Airport:

Trip Planner

Search our weather history database for the weather conditions in past years. The results will help you decide how hot, cold, wet, or windy it might be!

Date:

Astronomy

Sep. 18, 2013 Rise Set
Actual Time 7:16 AM EDT 7:36 PM EDT
Civil Twilight 6:47 AM EDT 8:04 PM EDT
Nautical Twilight 6:14 AM EDT 8:37 PM EDT
Astronomical Twilight 5:40 AM EDT 9:11 PM EDT
Moon 6:58 PM EDT (9/18) 6:16 AM EDT (9/18)
Length of Visible Light 13h 17m
Length of Day
12h 20m
Waxing Gibbous, 99% of the Moon is Illuminated
Sep 18
Waxing Gibbous
Sep 19
Full
Sep 26
Last Quarter
Oct 4
New
Oct 11
First Quarter

Hourly Weather History & Observations

Time (EDT) Temp. Dew Point Humidity Pressure Visibility Wind Dir Wind Speed Gust Speed Precip Events Conditions
12:15 AM 52.3 °F 44.8 °F 75% 30.26 in 10.0 mi Calm Calm - N/A   Clear
12:35 AM 52.3 °F 45.5 °F 78% 30.25 in 10.0 mi Calm Calm - N/A   Clear
12:54 AM 51.8 °F 45.5 °F 79% 30.25 in 10.0 mi Calm Calm - N/A   Clear
1:15 AM 51.3 °F 45.1 °F 80% 30.25 in 10.0 mi Calm Calm - N/A   Clear
1:34 AM 51.1 °F 45.5 °F 81% 30.24 in 10.0 mi Calm Calm - N/A   Clear
1:55 AM 50.7 °F 45.7 °F 83% 30.24 in 10.0 mi Calm Calm - N/A   Clear
2:15 AM 50.9 °F 46.0 °F 83% 30.24 in 10.0 mi Calm Calm - N/A   Clear
2:34 AM 51.1 °F 46.2 °F 83% 30.23 in 10.0 mi Calm Calm - N/A   Clear
2:55 AM 50.4 °F 46.4 °F 86% 30.23 in 10.0 mi Calm Calm - N/A   Clear
3:15 AM 50.7 °F 46.2 °F 85% 30.23 in 10.0 mi Calm Calm - N/A   Clear
3:34 AM 50.2 °F 45.9 °F 85% 30.22 in 10.0 mi Calm Calm - N/A   Clear
3:55 AM 50.4 °F 46.6 °F 87% 30.22 in 10.0 mi Calm Calm - N/A   Clear
4:15 AM 50.9 °F 47.3 °F 87% 30.22 in 10.0 mi Calm Calm - N/A   Clear
4:34 AM 50.9 °F 47.3 °F 87% 30.20 in 10.0 mi Calm Calm - N/A   Clear
4:55 AM 51.1 °F 47.8 °F 89% 30.20 in 10.0 mi Calm Calm - N/A   Clear
5:15 AM 50.9 °F 47.7 °F 89% 30.20 in 10.0 mi Calm Calm - N/A   Clear
5:34 AM 50.9 °F 47.8 °F 89% 30.21 in 10.0 mi Calm Calm - N/A   Clear
5:55 AM 51.1 °F 48.2 °F 90% 30.21 in 10.0 mi Calm Calm - N/A   Clear
6:14 AM 51.3 °F 48.4 °F 90% 30.20 in 10.0 mi Calm Calm - N/A   Clear
6:35 AM 51.1 °F 48.2 °F 90% 30.21 in 10.0 mi Calm Calm - N/A   Clear
6:55 AM 50.9 °F 47.8 °F 89% 30.21 in 10.0 mi Calm Calm - N/A   Clear
7:14 AM 50.0 °F 47.1 °F 90% 30.22 in 10.0 mi Calm Calm - N/A   Clear
7:35 AM 50.4 °F 47.8 °F 91% 30.22 in 10.0 mi Calm Calm - N/A   Clear
7:54 AM 51.3 °F 48.4 °F 90% 30.22 in 10.0 mi Calm Calm - N/A   Clear
8:15 AM 53.2 °F 49.6 °F 88% 30.21 in 10.0 mi Calm Calm - N/A   Clear
8:35 AM 54.5 °F 50.4 °F 86% 30.21 in 10.0 mi Calm Calm - N/A   Clear
8:54 AM 55.9 °F 51.3 °F 84% 30.21 in 10.0 mi Calm Calm - N/A   Clear
9:15 AM 57.0 °F 51.8 °F 83% 30.21 in 10.0 mi Calm Calm - N/A   Clear
9:35 AM 58.3 °F 52.5 °F 81% 30.22 in 10.0 mi Calm Calm - N/A   Clear
9:54 AM 61.3 °F 54.0 °F 77% 30.22 in 10.0 mi Calm Calm - N/A   Clear
10:15 AM 63.9 °F 54.1 °F 71% 30.21 in 10.0 mi Calm Calm - N/A   Clear
10:35 AM 65.5 °F 54.5 °F 68% 30.21 in 10.0 mi Calm Calm - N/A   Clear
10:54 AM 67.6 °F 54.9 °F 64% 30.20 in 10.0 mi Calm Calm - N/A   Clear
11:15 AM 69.4 °F 53.2 °F 56% 30.20 in 10.0 mi SW 3.5 mph - N/A   Clear
11:34 AM 71.1 °F 52.2 °F 51% 30.19 in 10.0 mi SSW 3.5 mph - N/A   Clear
11:55 AM 72.3 °F 52.3 °F 49% 30.19 in 10.0 mi SW 5.8 mph - N/A   Clear
12:15 PM 72.9 °F 52.0 °F 48% 30.18 in 10.0 mi SSW 3.5 mph - N/A   Clear
12:34 PM 72.9 °F 52.3 °F 48% 30.17 in 10.0 mi SSE 5.8 mph - N/A   Clear
12:55 PM 73.9 °F 51.1 °F 45% 30.17 in 10.0 mi SSE 4.6 mph - N/A   Clear
1:15 PM 73.4 °F 50.4 °F 44% 30.16 in 10.0 mi SSW 8.1 mph - N/A   Clear
1:34 PM 74.5 °F 50.0 °F 42% 30.16 in 10.0 mi SW 5.8 mph - N/A   Clear
1:55 PM 75.2 °F 50.7 °F 42% 30.15 in 10.0 mi SE 5.8 mph - N/A   Clear
2:14 PM 74.3 °F 49.3 °F 41% 30.15 in 10.0 mi ESE 3.5 mph - N/A   Clear
2:35 PM 74.8 °F 48.9 °F 40% 30.14 in 10.0 mi SSE 6.9 mph - N/A   Clear
2:55 PM 74.1 °F 48.6 °F 40% 30.14 in 10.0 mi South 5.8 mph - N/A   Clear
3:14 PM 75.2 °F 48.2 °F 38% 30.13 in 10.0 mi South 6.9 mph - N/A   Clear
3:35 PM 75.9 °F 45.9 °F 34% 30.12 in 10.0 mi South 9.2 mph - N/A   Clear
3:54 PM 76.5 °F 48.6 °F 37% 30.11 in 10.0 mi South 9.2 mph - N/A   Clear
4:15 PM 76.5 °F 50.2 °F 40% 30.11 in 10.0 mi South 5.8 mph - N/A   Clear
4:35 PM 76.3 °F 46.9 °F 35% 30.11 in 10.0 mi South 6.9 mph - N/A   Clear
4:54 PM 76.3 °F 48.9 °F 38% 30.10 in 10.0 mi SSE 6.9 mph - N/A   Clear
5:15 PM 76.1 °F 49.3 °F 39% 30.09 in 10.0 mi South 10.4 mph - N/A   Clear
5:35 PM 75.6 °F 50.2 °F 41% 30.09 in 10.0 mi SSW 5.8 mph - N/A   Clear
5:54 PM 75.2 °F 48.6 °F 39% 30.09 in 10.0 mi SSW 8.1 mph - N/A   Clear
6:15 PM 74.7 °F 50.2 °F 42% 30.09 in 10.0 mi South 6.9 mph - N/A   Clear
6:35 PM 73.9 °F 50.5 °F 44% 30.09 in 10.0 mi South 5.8 mph - N/A   Clear
6:54 PM 73.4 °F 51.6 °F 46% 30.08 in 10.0 mi South 6.9 mph - N/A   Clear
7:15 PM 71.8 °F 52.9 °F 51% 30.08 in 10.0 mi SSE 5.8 mph - N/A   Clear
7:35 PM 70.3 °F 53.1 °F 54% 30.08 in 10.0 mi South 3.5 mph - N/A   Clear
7:54 PM 68.9 °F 52.9 °F 57% 30.08 in 10.0 mi South 5.8 mph - N/A   Clear
8:15 PM 68.5 °F 52.0 °F 55% 30.09 in 10.0 mi Calm Calm - N/A   Clear
8:34 PM 67.6 °F 52.2 °F 58% 30.10 in 10.0 mi Calm Calm - N/A   Clear
8:54 PM 67.1 °F 52.2 °F 59% 30.10 in 10.0 mi Calm Calm - N/A   Clear
9:15 PM 65.7 °F 52.3 °F 62% 30.10 in 10.0 mi Calm Calm - N/A   Clear
9:34 PM 64.9 °F 53.2 °F 66% 30.10 in 10.0 mi SSE 3.5 mph - N/A   Clear
9:55 PM 64.4 °F 54.1 °F 69% 30.10 in 10.0 mi Calm Calm - N/A   Clear
10:14 PM 64.4 °F 54.0 °F 69% 30.10 in 10.0 mi Calm Calm - N/A   Clear
10:34 PM 63.7 °F 54.1 °F 71% 30.10 in 10.0 mi Calm Calm - N/A   Clear
10:55 PM 63.5 °F 54.7 °F 73% 30.09 in 10.0 mi Calm Calm - N/A   Clear
11:14 PM 63.0 °F 55.4 °F 76% 30.09 in 10.0 mi Calm Calm - N/A   Clear
11:35 PM 62.6 °F 55.8 °F 78% 30.09 in 10.0 mi Calm Calm - N/A   Clear
11:55 PM 62.1 °F 55.9 °F 80% 30.09 in 10.0 mi Calm Calm - N/A   Clear